"startDT [UTC]","vpos","CH4 [ppm]","stdev(CH4) [ppm]","CO2 [ppm]","stdev(CO2) [ppm]","H2O [ppm]","stdev(H2O)","p_LGR [torr]","T_LGR [C]","mt1_LGR [us]","mt2_LGR [us]","T_ECpre [C]","T_EC1 [C]","T_EC2 [C]","p_inlet [hPa]","p_in [hPa]","p_out [hPa]","T_inlet [C]","RH_inlet [%]","dwpt_inlet [C]","T_vent [C]","RH_vent [%]","dwpt_vent [C]","flow_vent [l min-1]","flow_inlet [l min-1]","dwpt_sample [C]","T_room [C]"
2012-04-04 00:00:00,0.0,1.9090,0.0011,402.45,0.15,1.2,7.8,138.13,27.87,24.61,36.30,0.04,-272.74,-272.74,-50,552,-937,21.9,1.8,-30.4,22.1,1.9,-30.0,5.73,2.34,-30.0,27.5
2012-04-04 00:01:00,0.0,1.9098,0.0011,402.50,0.23,1.8,8.7,138.13,27.87,24.61,36.31,0.04,-272.74,-272.73,-50,553,-937,21.9,1.8,-30.5,22.1,1.9,-30.0,5.73,2.50,-30.0,27.5
2012-04-04 00:02:00,0.0,1.9109,0.0009,402.58,0.24,2.3,11.6,138.13,27.87,24.60,36.31,0.04,-272.74,-272.74,-50,553,-937,21.8,1.8,-30.5,22.1,1.9,-30.0,5.73,2.31,-29.9,27.4
2012-04-04 00:03:00,0.0,1.9100,0.0010,402.71,0.21,0.7,7.2,138.13,27.88,24.61,36.31,0.04,-272.74,-272.74,-50,553,-937,21.9,1.8,-30.5,22.1,1.9,-30.0,5.73,2.53,-29.9,27.5
2012-04-04 00:04:00,0.0,1.9104,0.0010,402.59,0.26,-0.1,3.8,138.13,27.88,24.61,36.31,0.04,-272.74,-272.74,-50,553,-937,21.9,1.8,-30.5,22.1,1.9,-30.0,5.73,2.30,-29.9,27.5
2012-04-04 00:05:00,0.0,1.9107,0.0010,402.85,0.19,0.2,4.4,138.13,27.88,24.61,36.31,0.04,-272.73,-272.73,-50,553,-937,21.9,1.8,-30.5,22.1,1.9,-30.0,5.73,2.53,-29.9,27.5
2012-04-04 00:06:00,0.0,1.9108,0.0010,402.80,0.18,0.2,5.8,138.12,27.88,24.61,36.31,0.04,-272.74,-272.74,-50,553,-937,21.8,1.9,-30.4,22.2,1.9,-30.0,5.73,2.31,-29.9,27.5
2012-04-04 00:07:00,0.0,1.9109,0.0010,402.71,0.17,2.3,10.8,138.13,27.89,24.61,36.31,0.04,-272.74,-272.73,-50,553,-937,21.9,1.9,-30.3,22.2,1.9,-29.8,5.73,2.50,-29.9,27.6
2012-04-04 00:08:00,0.0,1.9105,0.0011,402.75,0.23,1.7,9.6,138.13,27.89,24.61,36.31,0.04,-272.73,-272.74,-51,553,-937,21.9,1.9,-30.3,22.2,1.9,-29.8,5.73,2.35,-29.9,27.6
2012-04-04 00:09:00,0.0,1.9103,0.0011,402.60,0.23,1.2,7.0,138.13,27.89,24.61,36.31,0.04,-272.74,-272.74,-50,553,-937,21.9,1.9,-30.2,22.2,2.0,-29.7,5.73,2.45,-29.9,27.7
2012-04-04 00:10:00,0.0,1.9105,0.0008,402.56,0.20,2.0,8.1,138.12,27.90,24.61,36.31,0.04,-272.73,-272.73,-50,553,-937,21.9,1.9,-30.0,22.2,2.0,-29.5,5.73,2.40,-29.8,27.6
2012-04-04 00:11:00,0.0,1.9102,0.0007,402.68,0.20,0.7,8.5,138.13,27.90,24.61,36.31,0.04,-272.73,-272.74,-50,553,-937,21.9,1.9,-29.9,22.2,2.0,-29.5,5.73,2.40,-29.8,27.5
2012-04-04 00:12:00,0.0,1.9107,0.0009,402.67,0.21,0.1,4.2,138.12,27.90,24.60,36.31,0.04,-272.74,-272.74,-50,553,-937,21.9,1.9,-29.9,22.2,2.0,-29.4,5.73,2.45,-29.8,27.5
2012-04-04 00:13:00,0.0,1.9107,0.0010,402.73,0.18,1.8,7.5,138.12,27.90,24.60,36.31,0.04,-272.74,-272.74,-51,553,-937,21.9,2.0,-29.7,22.2,2.0,-29.2,5.73,2.35,-29.8,27.5
2012-04-04 00:14:00,0.0,1.9105,0.0009,402.80,0.18,1.4,9.5,138.13,27.91,24.61,36.30,0.04,-272.74,-272.74,-50,553,-937,21.9,2.0,-29.5,22.2,2.1,-29.1,5.73,2.49,-29.8,27.5
2012-04-04 00:15:00,0.0,1.9107,0.0010,402.85,0.24,1.0,8.5,138.12,27.91,24.61,36.31,0.04,-272.74,-272.74,-51,553,-937,21.9,2.0,-29.4,22.2,2.1,-29.0,5.73,2.31,-29.8,27.5
2012-04-04 00:16:00,0.0,1.9106,0.0009,402.91,0.23,2.5,8.9,138.13,27.91,24.60,36.30,0.04,-272.74,-272.74,-50,553,-937,21.9,2.0,-29.4,22.2,2.1,-28.9,5.73,2.52,-29.8,27.5
2012-04-04 00:17:00,0.0,1.9105,0.0010,402.76,0.21,2.0,10.8,138.12,27.91,24.61,36.31,0.04,-272.73,-272.74,-50,553,-937,21.9,2.0,-29.4,22.2,2.1,-28.9,5.73,2.30,-29.8,27.5
2012-04-04 00:18:00,0.0,1.9108,0.0009,402.69,0.20,1.9,8.9,138.12,27.91,24.61,36.31,0.04,-272.73,-272.74,-51,553,-937,21.9,2.1,-29.3,22.3,2.1,-28.8,5.73,2.53,-29.8,27.6
2012-04-04 00:19:00,0.0,1.9105,0.0010,402.71,0.23,2.1,8.6,138.12,27.92,24.61,36.31,0.04,-272.74,-272.74,-50,553,-937,21.9,2.1,-29.2,22.3,2.1,-28.7,5.73,2.29,-29.8,27.6
2012-04-04 00:20:00,0.0,1.9100,0.0010,402.52,0.19,2.6,10.3,138.12,27.92,24.61,36.31,0.04,-272.73,-272.74,-51,553,-937,22.0,2.1,-29.2,22.3,2.1,-28.8,5.73,2.52,-29.7,27.6
2012-04-04 00:21:00,0.0,1.9108,0.0012,402.69,0.20,2.9,10.3,138.12,27.92,24.60,36.31,0.04,-272.73,-272.73,-50,554,-937,22.0,2.1,-29.2,22.3,2.1,-28.8,5.73,2.31,-29.7,27.6
2012-04-04 00:22:00,0.0,1.9104,0.0010,402.69,0.17,1.6,8.8,138.12,27.92,24.61,36.31,0.04,-272.73,-272.74,-50,553,-937,22.0,2.1,-29.0,22.3,2.2,-28.5,5.73,2.49,-29.7,27.7
2012-04-04 00:23:00,0.0,1.9100,0.0009,402.60,0.22,2.3,10.9,138.12,27.92,24.60,36.31,0.04,-272.74,-272.74,-51,553,-937,22.0,2.1,-29.1,22.3,2.1,-28.7,5.73,2.35,-29.7,27.6
2012-04-04 00:24:00,0.0,1.9095,0.0011,402.55,0.18,3.8,12.0,138.12,27.92,24.61,36.31,0.04,-272.73,-272.74,-50,554,-937,22.0,2.1,-28.9,22.3,2.2,-28.5,5.73,2.44,-29.7,27.6
2012-04-04 00:25:00,0.0,1.9092,0.0011,402.45,0.22,3.2,11.8,138.12,27.93,24.61,36.31,0.04,-272.74,-272.74,-51,554,-937,22.0,2.1,-29.1,22.3,2.2,-28.5,5.73,2.40,-29.7,27.6
2012-04-04 00:26:00,0.0,1.9089,0.0009,402.50,0.17,2.6,10.1,138.12,27.93,24.61,36.31,0.04,-272.74,-272.74,-50,553,-937,22.0,2.1,-29.2,22.3,2.1,-28.7,5.73,2.40,-29.7,27.6
2012-04-04 00:27:00,0.0,1.9091,0.0009,402.52,0.22,0.6,5.7,138.12,27.93,24.60,36.30,0.04,-272.74,-272.74,-51,553,-937,22.0,2.1,-29.2,22.3,2.1,-28.7,5.73,2.43,-29.7,27.5
2012-04-04 00:28:00,0.0,1.9091,0.0010,402.47,0.17,2.6,11.8,138.12,27.94,24.61,36.31,0.04,-272.74,-272.73,-50,554,-937,22.0,2.1,-29.0,22.3,2.2,-28.4,5.73,2.37,-29.6,27.5
2012-04-04 00:29:00,0.0,1.9088,0.0011,402.67,0.24,3.1,11.5,138.12,27.94,24.61,36.31,0.04,-272.74,-272.73,-50,554,-937,22.0,2.0,-29.3,22.3,2.1,-28.8,5.73,2.48,-29.6,27.5
2012-04-04 00:30:00,0.0,1.9091,0.0010,402.65,0.22,0.7,5.3,138.12,27.94,24.61,36.31,0.04,-272.74,-272.74,-51,554,-937,22.0,2.1,-29.2,22.3,2.1,-28.8,5.73,2.32,-29.6,27.6
2012-04-04 00:31:00,0.0,1.9090,0.0009,402.57,0.22,3.5,12.0,138.12,27.95,24.61,36.31,0.04,-272.73,-272.73,-50,554,-937,22.0,2.1,-29.1,22.3,2.1,-28.6,5.73,2.51,-29.6,27.5
2012-04-04 00:32:00,0.0,1.9094,0.0010,402.66,0.20,1.0,9.0,138.12,27.95,24.60,36.30,0.04,-272.74,-272.74,-51,554,-938,22.0,2.1,-29.1,22.3,2.1,-28.6,5.73,2.30,-29.6,27.7
2012-04-04 00:33:00,0.0,1.9096,0.0010,402.61,0.24,2.7,8.8,138.12,27.95,24.61,36.31,0.04,-272.74,-272.74,-50,554,-937,22.0,2.1,-28.9,22.3,2.2,-28.4,5.73,2.52,-29.6,27.7
2012-04-04 00:34:00,0.0,1.9099,0.0010,402.66,0.21,4.6,11.7,138.12,27.95,24.61,36.31,0.04,-272.73,-272.73,-50,554,-937,22.0,2.1,-28.8,22.3,2.2,-28.3,5.73,2.29,-29.6,27.7
2012-04-04 00:35:00,0.0,1.9101,0.0010,402.68,0.18,4.1,13.4,138.12,27.96,24.61,36.31,0.04,-272.73,-272.74,-51,554,-937,22.0,2.2,-28.7,22.3,2.2,-28.2,5.73,2.52,-29.5,27.7
2012-04-04 00:36:00,0.0,1.9103,0.0010,402.63,0.21,2.8,9.7,138.12,27.96,24.61,36.31,0.04,-272.73,-272.74,-50,554,-937,22.0,2.2,-28.6,22.3,2.2,-28.1,5.73,2.29,-29.5,27.7
2012-04-04 00:37:00,0.0,1.9106,0.0010,402.65,0.20,4.0,12.5,138.12,27.96,24.61,36.31,0.04,-272.74,-272.74,-51,554,-937,22.1,2.2,-28.4,22.3,2.3,-28.0,5.73,2.52,-29.5,27.7
2012-04-04 00:38:00,0.0,1.9108,0.0009,402.76,0.21,3.9,11.4,138.12,27.97,24.61,36.30,0.04,-272.73,-272.74,-50,554,-937,22.0,2.2,-28.3,22.3,2.3,-27.8,5.73,2.30,-29.5,27.6
2012-04-04 00:39:00,0.0,1.9103,0.0010,402.52,0.23,6.3,17.1,138.12,27.97,24.60,36.31,0.04,-272.74,-272.74,-51,553,-937,22.0,2.3,-28.2,22.3,2.3,-27.7,5.73,2.50,-29.5,27.6
2012-04-04 00:40:00,0.0,1.9104,0.0010,402.59,0.19,5.2,14.0,138.12,27.98,24.61,36.31,0.04,-272.73,-272.74,-50,554,-937,22.0,2.3,-27.8,22.3,2.4,-27.4,5.73,2.32,-29.5,27.6
2012-04-04 00:41:00,0.0,1.9108,0.0011,402.51,0.23,5.4,14.3,138.12,27.98,24.61,36.32,0.04,-272.73,-272.74,-50,554,-937,22.0,2.3,-27.9,22.3,2.4,-27.4,5.73,2.48,-29.5,27.6
2012-04-04 00:42:00,0.0,1.9108,0.0009,402.58,0.26,6.6,15.3,138.12,27.98,24.61,36.31,0.04,-272.73,-272.74,-51,554,-937,22.0,2.3,-27.9,22.3,2.4,-27.5,5.73,2.34,-29.5,27.6
2012-04-04 00:43:00,0.0,1.9111,0.0008,402.49,0.21,6.8,16.0,138.12,27.99,24.60,36.31,0.04,-272.74,-272.74,-50,554,-937,22.1,2.4,-27.4,22.4,2.5,-26.9,5.73,2.46,-29.5,27.6
2012-04-04 00:44:00,0.0,1.9111,0.0009,402.51,0.18,3.5,10.8,138.12,27.99,24.61,36.32,0.04,-272.74,-272.74,-51,554,-937,22.1,2.4,-27.7,22.4,2.4,-27.2,5.73,2.37,-29.5,27.6
2012-04-04 00:45:00,0.0,1.9111,0.0009,402.55,0.21,4.5,12.2,138.12,27.99,24.61,36.32,0.04,-272.73,-272.73,-50,554,-937,22.1,2.4,-27.7,22.4,2.4,-27.2,5.73,2.43,-29.4,27.7
2012-04-04 00:46:00,0.0,1.9113,0.0010,402.50,0.25,7.0,19.4,138.12,28.00,24.61,36.32,0.04,-272.74,-272.74,-50,554,-937,22.1,2.4,-27.7,22.4,2.4,-27.2,5.73,2.40,-29.4,27.7
2012-04-04 00:47:00,0.0,1.9112,0.0009,402.50,0.22,2.1,7.8,138.12,28.00,24.61,36.32,0.04,-272.74,-272.74,-51,554,-937,22.1,2.4,-27.7,22.4,2.4,-27.2,5.73,2.41,-29.4,27.7
2012-04-04 00:48:00,0.0,1.9115,0.0010,402.58,0.20,6.9,16.8,138.12,28.00,24.61,36.31,0.04,-272.73,-272.74,-50,554,-937,22.1,2.4,-27.7,22.4,2.4,-27.2,5.73,2.42,-29.4,27.7
2012-04-04 00:49:00,0.0,1.9112,0.0011,402.60,0.20,9.3,16.0,138.12,28.01,24.61,36.31,0.04,-272.74,-272.73,-51,554,-937,22.1,2.3,-27.8,22.4,2.4,-27.3,5.73,2.38,-29.4,27.6
2012-04-04 00:50:00,0.0,1.9113,0.0012,402.65,0.21,5.7,13.1,138.12,28.01,24.61,36.31,0.04,-272.73,-272.74,-50,554,-938,22.1,2.3,-27.8,22.4,2.4,-27.4,5.73,2.44,-29.3,27.7
2012-04-04 00:51:00,0.0,1.9113,0.0010,402.63,0.21,5.2,11.9,138.12,28.02,24.61,36.31,0.04,-272.74,-272.73,-51,554,-937,22.1,2.3,-28.0,22.4,2.3,-27.6,5.73,2.36,-29.3,27.6
2012-04-04 00:52:00,0.0,1.9130,0.0010,402.80,0.20,3.7,13.5,138.12,28.02,24.61,36.31,0.04,-272.73,-272.74,-50,554,-938,22.1,2.2,-28.3,22.4,2.3,-27.8,5.73,2.46,-29.3,27.6
2012-04-04 00:53:00,0.0,1.9130,0.0009,402.65,0.16,6.6,14.2,138.12,28.02,24.60,36.32,0.04,-272.74,-272.74,-50,554,-937,22.1,2.2,-28.5,22.4,2.3,-27.9,5.73,2.35,-29.3,27.7
2012-04-04 00:54:00,0.0,1.9126,0.0013,402.70,0.23,7.5,18.0,138.12,28.03,24.61,36.31,0.04,-272.74,-272.74,-51,554,-937,22.1,2.2,-28.6,22.4,2.2,-28.1,5.73,2.48,-29.3,27.7
2012-04-04 00:55:00,0.0,1.9120,0.0011,402.67,0.23,7.3,17.0,138.12,28.03,24.61,36.31,0.04,-272.73,-272.74,-50,554,-937,22.0,2.1,-28.8,22.4,2.2,-28.2,5.73,2.32,-29.3,27.7
2012-04-04 00:56:00,0.0,1.9121,0.0009,402.72,0.20,6.8,15.3,138.12,28.03,24.61,36.31,0.04,-272.74,-272.74,-51,554,-938,22.1,2.1,-28.8,22.4,2.2,-28.4,5.73,2.50,-29.2,27.8
2012-04-04 00:57:00,0.0,1.9129,0.0009,402.76,0.17,8.3,16.9,138.12,28.04,24.61,36.31,0.04,-272.73,-272.73,-50,554,-937,22.1,2.1,-28.9,22.4,2.2,-28.4,5.73,2.31,-29.2,27.8
2012-04-04 00:58:00,0.0,1.9122,0.0010,402.72,0.19,7.9,15.4,138.12,28.04,24.61,36.31,0.04,-272.74,-272.74,-51,554,-937,22.1,2.1,-28.8,22.4,2.2,-28.3,5.73,2.52,-29.2,27.8
2012-04-04 00:59:00,0.0,1.9120,0.0009,402.61,0.20,5.1,12.5,138.12,28.05,24.61,36.31,0.04,-272.73,-272.74,-50,555,-938,22.1,2.1,-28.7,22.5,2.2,-28.2,5.73,2.30,-29.2,27.8
2012-04-04 01:00:00,0.0,1.9119,0.0009,402.64,0.19,12.1,19.1,138.12,28.05,24.61,36.32,0.04,-272.74,-272.74,-50,554,-937,22.1,2.2,-28.6,22.5,2.2,-28.1,5.73,2.52,-29.2,27.8
2012-04-04 01:01:00,0.0,1.9116,0.0011,402.56,0.18,10.7,19.0,138.12,28.06,24.61,36.32,0.04,-272.73,-272.73,-51,554,-937,22.1,2.2,-28.4,22.5,2.3,-27.9,5.73,2.30,-29.2,27.8
2012-04-04 01:02:00,0.0,1.9118,0.0009,402.64,0.23,9.3,18.8,138.12,28.06,24.61,36.31,0.04,-272.73,-272.74,-50,554,-937,22.1,2.2,-28.5,22.5,2.3,-27.9,5.73,2.52,-29.2,27.8
2012-04-04 01:03:00,0.0,1.9127,0.0009,402.70,0.18,7.1,14.9,138.12,28.07,24.61,36.31,0.04,-272.74,-272.74,-51,555,-938,22.1,2.2,-28.4,22.5,2.3,-27.9,5.73,2.29,-29.1,27.7
2012-04-04 01:04:00,0.0,1.9121,0.0009,402.58,0.24,7.5,15.9,138.12,28.07,24.61,36.32,0.04,-272.73,-272.73,-50,555,-937,22.1,2.2,-28.2,22.5,2.3,-27.7,5.73,2.52,-29.1,27.7
2012-04-04 01:05:00,0.0,1.9118,0.0009,402.63,0.23,8.1,15.3,138.12,28.07,24.61,36.31,0.04,-272.73,-272.74,-51,555,-937,22.1,2.3,-27.9,22.5,2.4,-27.5,5.73,2.29,-29.1,27.7
2012-04-04 01:06:00,0.0,1.9159,0.0027,402.74,0.24,13.1,23.6,138.12,28.08,24.61,36.32,0.04,-272.74,-272.74,-50,555,-938,22.1,2.3,-28.1,22.5,2.3,-27.6,5.73,2.52,-29.1,27.7
2012-04-04 01:07:00,0.0,1.9204,0.0020,402.85,0.21,11.1,20.5,138.12,28.08,24.61,36.31,0.04,-272.73,-272.74,-50,555,-938,22.1,2.3,-28.1,22.5,2.3,-27.6,5.73,2.29,-29.1,27.8
2012-04-04 01:08:00,0.0,1.9149,0.0020,402.59,0.22,9.1,18.6,138.12,28.09,24.61,36.32,0.04,-272.74,-272.74,-50,555,-938,22.1,2.2,-28.3,22.5,2.3,-27.8,5.73,2.52,-29.1,27.8
2012-04-04 01:09:00,0.0,1.9131,0.0010,402.62,0.23,8.2,17.0,138.12,28.09,24.61,36.32,0.04,-272.74,-272.73,-50,555,-938,22.1,2.2,-28.4,22.5,2.3,-27.9,5.73,2.30,-29.1,27.8
2012-04-04 01:10:00,0.0,1.9149,0.0013,402.55,0.24,14.1,18.5,138.12,28.10,24.61,36.31,0.04,-272.74,-272.74,-51,555,-938,22.1,2.2,-28.5,22.5,2.2,-28.1,5.73,2.52,-29.1,27.8
2012-04-04 01:11:00,0.0,1.9149,0.0008,402.59,0.20,8.2,16.5,138.12,28.10,24.61,36.32,0.04,-272.73,-272.73,-50,555,-938,22.2,2.2,-28.6,22.5,2.2,-28.2,5.73,2.29,-29.0,27.9
2012-04-04 01:12:00,0.0,1.9163,0.0009,402.55,0.17,11.5,20.3,138.12,28.11,24.61,36.32,0.04,-272.74,-272.74,-51,555,-938,22.2,2.1,-28.7,22.5,2.2,-28.2,5.73,2.52,-29.0,27.9
2012-04-04 01:13:00,0.0,1.9149,0.0009,402.61,0.18,14.9,23.4,138.12,28.11,24.61,36.32,0.04,-272.74,-272.74,-50,555,-938,22.2,2.2,-28.5,22.5,2.2,-28.1,5.73,2.30,-29.0,27.9
2012-04-04 01:14:00,0.0,1.9123,0.0017,402.53,0.20,10.8,19.0,138.12,28.12,24.61,36.32,0.04,-272.73,-272.73,-51,555,-938,22.2,2.2,-28.5,22.5,2.2,-28.1,5.73,2.51,-29.0,27.9
2012-04-04 01:15:00,0.0,1.9116,0.0011,402.49,0.20,10.6,18.3,138.12,28.12,24.61,36.32,0.04,-272.73,-272.74,-50,555,-938,22.2,2.2,-28.5,22.5,2.2,-28.0,5.73,2.30,-29.0,27.9
2012-04-04 01:16:00,0.0,1.9112,0.0008,402.46,0.22,17.1,23.6,138.12,28.13,24.61,36.32,0.04,-272.74,-272.74,-50,555,-938,22.2,2.2,-28.4,22.5,2.3,-27.8,5.73,2.51,-29.0,27.9
2012-04-04 01:17:00,0.0,1.9111,0.0010,402.48,0.18,16.8,22.7,138.12,28.14,24.61,36.32,0.04,-272.74,-272.74,-51,555,-938,22.2,2.2,-28.2,22.5,2.3,-27.7,5.73,2.30,-28.9,27.8
2012-04-04 01:18:00,0.0,1.9109,0.0011,402.41,0.23,12.5,21.5,138.12,28.14,24.61,36.32,0.04,-272.74,-272.74,-50,555,-938,22.2,2.3,-28.1,22.5,2.3,-27.6,5.73,2.51,-28.9,27.9
2012-04-04 01:19:00,0.0,1.9116,0.0010,402.49,0.23,23.7,28.3,138.12,28.14,24.61,36.32,0.04,-272.74,-272.74,-51,555,-938,22.2,2.3,-28.0,22.5,2.3,-27.6,5.73,2.31,-28.9,27.8
2012-04-04 01:20:00,0.0,1.9113,0.0008,402.51,0.20,17.2,27.6,138.11,28.15,24.61,36.32,0.04,-272.74,-272.74,-50,555,-938,22.2,2.3,-28.1,22.5,2.3,-27.6,5.73,2.50,-28.9,27.8
2012-04-04 01:21:00,0.0,1.9110,0.0009,402.43,0.22,16.3,23.8,138.11,28.15,24.61,36.32,0.04,-272.74,-272.74,-51,555,-938,22.2,2.3,-28.1,22.5,2.3,-27.7,5.73,2.31,-28.9,27.9
2012-04-04 01:22:00,0.0,1.9135,0.0010,402.48,0.17,22.4,28.0,138.11,28.15,24.61,36.32,0.04,-272.74,-272.74,-50,555,-938,22.2,2.3,-27.9,22.5,2.3,-27.5,5.73,2.50,-28.9,27.9
2012-04-04 01:23:00,0.0,1.9146,0.0010,402.43,0.20,16.0,21.8,138.12,28.15,24.61,36.32,0.04,-272.74,-272.74,-51,555,-938,22.2,2.3,-28.1,22.5,2.3,-27.6,5.73,2.31,-28.9,28.0
2012-04-04 01:24:00,0.0,1.9131,0.0014,402.49,0.19,21.5,28.5,138.11,28.16,24.61,36.32,0.04,-272.73,-272.74,-51,555,-938,22.3,2.2,-28.2,22.6,2.3,-27.7,5.73,2.50,-28.8,28.0
2012-04-04 01:25:00,0.0,1.9112,0.0010,402.51,0.22,21.4,24.8,138.11,28.16,24.61,36.31,0.04,-272.74,-272.74,-50,555,-938,22.3,2.2,-28.2,22.6,2.3,-27.7,5.73,2.31,-28.8,28.0
2012-04-04 01:26:00,0.0,1.9117,0.0010,402.49,0.19,16.4,28.8,138.11,28.17,24.61,36.31,0.04,-272.74,-272.74,-51,555,-938,22.3,2.2,-28.1,22.6,2.3,-27.6,5.73,2.50,-28.8,28.0
2012-04-04 01:27:00,0.0,1.9116,0.0013,402.44,0.22,19.4,23.5,138.11,28.17,24.61,36.32,0.04,-272.74,-272.74,-50,555,-938,22.3,2.3,-28.1,22.6,2.3,-27.6,5.73,2.31,-28.8,27.9
2012-04-04 01:28:00,0.0,1.9119,0.0013,402.44,0.18,20.1,20.8,138.11,28.18,24.61,36.32,0.04,-272.74,-272.73,-51,555,-938,22.3,2.2,-28.2,22.6,2.3,-27.6,5.73,2.51,-28.8,27.9
2012-04-04 01:29:00,0.0,1.9109,0.0008,402.39,0.23,18.2,20.9,138.11,28.18,24.61,36.32,0.04,-272.74,-272.74,-50,555,-938,22.3,2.2,-28.2,22.6,2.3,-27.7,5.73,2.30,-28.8,27.9
2012-04-04 01:30:00,0.0,1.9106,0.0010,402.43,0.22,21.6,28.0,138.11,28.19,24.61,36.31,0.04,-272.74,-272.74,-51,555,-938,22.3,2.2,-28.2,22.6,2.3,-27.7,5.73,2.51,-28.7,27.9
2012-04-04 01:31:00,0.0,1.9112,0.0011,402.38,0.23,15.5,28.0,138.11,28.19,24.61,36.32,0.04,-272.73,-272.74,-50,555,-938,22.3,2.2,-28.2,22.6,2.3,-27.7,5.73,2.30,-28.7,27.9
2012-04-04 01:32:00,0.0,1.9112,0.0012,402.42,0.24,19.3,23.4,138.11,28.20,24.61,36.32,0.04,-272.73,-272.74,-51,555,-938,22.3,2.2,-28.2,22.6,2.3,-27.7,5.73,2.52,-28.7,27.9
2012-04-04 01:33:00,0.0,1.9117,0.0010,402.45,0.22,17.5,23.1,138.11,28.21,24.61,36.32,0.04,-272.74,-272.74,-51,555,-938,22.3,2.2,-28.2,22.6,2.3,-27.7,5.73,2.29,-28.7,27.9
2012-04-04 01:34:00,0.0,1.9115,0.0012,402.44,0.18,19.5,23.9,138.11,28.21,24.61,36.32,0.04,-272.74,-272.74,-51,555,-938,22.3,2.2,-28.2,22.7,2.3,-27.7,5.73,2.52,-28.7,27.9
2012-04-04 01:35:00,0.0,1.9117,0.0011,402.47,0.17,21.3,26.3,138.11,28.22,24.61,36.32,0.04,-272.74,-272.73,-51,556,-938,22.4,2.2,-28.3,22.7,2.3,-27.7,5.73,2.29,-28.7,28.0
2012-04-04 01:36:00,0.0,1.9114,0.0011,402.34,0.20,19.5,25.0,138.11,28.22,24.61,36.32,0.04,-272.74,-272.74,-51,555,-938,22.4,2.2,-28.3,22.7,2.3,-27.8,5.73,2.52,-28.6,28.0
2012-04-04 01:37:00,0.0,1.9115,0.0011,402.39,0.22,17.6,24.6,138.11,28.23,24.61,36.32,0.04,-272.74,-272.74,-51,556,-938,22.4,2.2,-28.3,22.7,2.3,-27.8,5.73,2.29,-28.6,28.1
2012-04-04 01:38:00,0.0,1.9110,0.0011,402.46,0.26,24.7,27.9,138.11,28.24,24.61,36.31,0.04,-272.74,-272.73,-50,556,-938,22.4,2.2,-28.1,22.7,2.3,-27.7,5.73,2.51,-28.6,28.1
2012-04-04 01:39:00,0.0,1.9108,0.0009,402.33,0.18,17.0,24.5,138.11,28.24,24.61,36.32,0.04,-272.73,-272.74,-51,556,-938,22.5,2.2,-28.1,22.7,2.3,-27.6,5.73,2.30,-28.6,28.0
2012-04-04 01:40:00,0.0,1.9117,0.0009,402.49,0.20,24.0,29.8,138.11,28.25,24.61,36.32,0.04,-272.74,-272.74,-50,556,-938,22.4,2.2,-28.1,22.7,2.3,-27.6,5.73,2.50,-28.6,28.1
2012-04-04 01:41:00,0.0,1.9109,0.0009,402.29,0.19,22.6,27.3,138.11,28.25,24.61,36.32,0.04,-272.74,-272.74,-51,556,-938,22.5,2.2,-28.2,22.7,2.3,-27.6,5.73,2.31,-28.6,28.1
2012-04-04 01:42:00,0.0,1.9108,0.0012,402.30,0.21,19.1,21.9,138.11,28.26,24.61,36.32,0.04,-272.73,-272.73,-51,556,-938,22.5,2.2,-28.1,22.8,2.3,-27.6,5.73,2.49,-28.6,28.1
2012-04-04 01:43:00,0.0,1.9106,0.0010,402.18,0.20,25.6,26.9,138.11,28.26,24.61,36.32,0.04,-272.74,-272.74,-51,556,-938,22.5,2.2,-28.1,22.8,2.3,-27.6,5.73,2.32,-28.5,28.1
2012-04-04 01:44:00,0.0,1.9103,0.0010,402.15,0.19,34.5,30.8,138.11,28.27,24.61,36.32,0.04,-272.74,-272.74,-51,556,-938,22.4,2.2,-28.1,22.8,2.3,-27.6,5.73,2.47,-28.5,28.1
2012-04-04 01:45:00,0.0,1.9103,0.0009,402.13,0.22,24.9,29.3,138.11,28.27,24.61,36.32,0.04,-272.74,-272.74,-51,555,-938,22.4,2.2,-28.2,22.8,2.3,-27.7,5.73,2.35,-28.5,28.1
2012-04-04 01:46:00,0.0,1.9104,0.0010,402.22,0.22,23.3,28.8,138.11,28.28,24.61,36.31,0.04,-272.74,-272.74,-51,556,-938,22.5,2.2,-28.2,22.8,2.3,-27.8,5.73,2.43,-28.5,28.1
2012-04-04 01:47:00,0.0,1.9106,0.0009,402.17,0.23,29.7,29.7,138.11,28.29,24.61,36.32,0.04,-272.73,-272.74,-51,556,-938,22.5,2.2,-28.2,22.8,2.3,-27.7,5.73,2.39,-28.5,28.1
2012-04-04 01:48:00,0.0,1.9108,0.0011,402.18,0.18,27.5,27.3,138.11,28.29,24.61,36.33,0.04,-272.74,-272.74,-51,556,-938,22.5,2.2,-28.2,22.8,2.3,-27.7,5.73,2.40,-28.5,28.1
2012-04-04 01:49:00,0.0,1.9102,0.0011,402.16,0.23,27.8,30.2,138.11,28.30,24.62,36.32,0.04,-272.73,-272.74,-51,556,-938,22.5,2.2,-28.1,22.8,2.3,-27.6,5.73,2.42,-28.4,28.1
2012-04-04 01:50:00,0.0,1.9108,0.0012,402.22,0.26,21.6,28.1,138.11,28.30,24.61,36.32,0.04,-272.74,-272.74,-51,556,-938,22.5,2.2,-28.0,22.8,2.3,-27.5,5.73,2.36,-28.5,28.2
2012-04-04 01:51:00,0.0,1.9113,0.0011,402.33,0.22,29.3,33.0,138.11,28.31,24.61,36.32,0.04,-272.74,-272.74,-51,556,-938,22.5,2.3,-27.9,22.8,2.3,-27.4,5.73,2.46,-28.4,28.2
2012-04-04 01:52:00,0.0,1.9108,0.0012,402.35,0.24,29.2,30.8,138.11,28.32,24.61,36.32,0.04,-272.74,-272.74,-51,556,-938,22.6,2.3,-27.8,22.8,2.3,-27.3,5.73,2.33,-28.4,28.2
2012-04-04 01:53:00,0.0,1.9113,0.0010,402.35,0.21,30.8,32.3,138.11,28.32,24.61,36.31,0.04,-272.74,-272.73,-50,556,-938,22.6,2.3,-27.6,22.8,2.4,-27.2,5.73,2.50,-28.4,28.2
2012-04-04 01:54:00,0.0,1.9114,0.0008,402.16,0.23,30.1,31.6,138.11,28.33,24.61,36.32,0.04,-272.74,-272.74,-51,556,-938,22.6,2.3,-27.5,22.9,2.4,-27.0,5.73,2.30,-28.4,28.2
2012-04-04 01:55:00,0.0,1.9114,0.0008,402.29,0.18,33.3,29.9,138.11,28.33,24.61,36.32,0.04,-272.74,-272.73,-51,557,-938,22.6,2.4,-27.3,22.9,2.4,-26.9,5.73,2.51,-28.4,28.2
2012-04-04 01:56:00,0.0,1.9115,0.0008,402.16,0.23,20.6,26.5,138.11,28.34,24.61,36.32,0.04,-272.74,-272.73,-51,556,-938,22.6,2.4,-27.3,22.9,2.5,-26.8,5.73,2.29,-28.3,28.3
2012-04-04 01:57:00,0.0,1.9113,0.0011,402.19,0.18,27.4,31.1,138.11,28.34,24.61,36.32,0.04,-272.74,-272.74,-51,557,-938,22.6,2.4,-27.2,22.9,2.5,-26.7,5.73,2.51,-28.4,28.2
2012-04-04 01:58:00,0.0,1.9102,0.0012,401.94,0.21,24.1,29.7,138.11,28.35,24.61,36.32,0.04,-272.74,-272.74,-51,556,-938,22.6,2.4,-27.1,22.9,2.5,-26.6,5.73,2.31,-28.3,28.2
2012-04-04 01:59:00,0.0,1.9104,0.0009,402.01,0.21,25.5,28.3,138.11,28.36,24.61,36.32,0.04,-272.74,-272.74,-51,556,-938,22.6,2.4,-27.0,22.9,2.5,-26.6,5.73,2.48,-28.3,28.2
2012-04-04 02:00:00,0.0,1.9098,0.0010,402.03,0.22,29.1,28.8,138.11,28.36,24.62,36.32,0.04,-272.73,-272.74,-51,556,-938,22.6,2.4,-27.0,22.9,2.5,-26.5,5.73,2.34,-28.3,28.3
2012-04-04 02:01:00,0.0,1.9100,0.0010,401.99,0.21,32.7,29.8,138.11,28.37,24.61,36.32,0.04,-272.74,-272.74,-51,556,-938,22.6,2.5,-26.9,22.9,2.5,-26.4,5.73,2.44,-28.3,28.2
2012-04-04 02:02:00,0.0,1.9104,0.0010,401.95,0.24,23.1,24.2,138.11,28.38,24.61,36.32,0.04,-272.74,-272.74,-51,556,-938,22.6,2.5,-26.9,22.9,2.5,-26.4,5.73,2.39,-28.3,28.2
2012-04-04 02:03:00,0.0,1.9101,0.0009,401.90,0.20,31.9,29.9,138.11,28.39,24.61,36.32,0.04,-272.74,-272.74,-51,557,-938,22.6,2.5,-26.9,22.9,2.5,-26.4,5.73,2.38,-28.3,28.2
2012-04-04 02:04:00,0.0,1.9100,0.0011,401.94,0.24,26.8,28.9,138.11,28.39,24.61,36.32,0.04,-272.74,-272.73,-51,556,-938,22.6,2.4,-27.0,22.9,2.5,-26.5,5.73,2.44,-28.2,28.2
2012-04-04 02:05:00,0.0,1.9099,0.0009,401.93,0.21,36.3,35.0,138.11,28.40,24.62,36.32,0.04,-272.73,-272.74,-51,557,-938,22.6,2.4,-27.0,22.9,2.5,-26.6,5.73,2.34,-28.3,28.3
2012-04-04 02:06:00,0.0,1.9101,0.0009,401.93,0.19,36.3,34.0,138.11,28.40,24.62,36.32,0.04,-272.74,-272.74,-51,556,-938,22.6,2.4,-27.0,22.9,2.5,-26.4,5.73,2.48,-28.3,28.3
2012-04-04 02:07:00,0.0,1.9097,0.0010,401.82,0.19,31.7,30.3,138.11,28.41,24.62,36.33,0.04,-272.74,-272.73,-51,557,-938,22.7,2.5,-26.9,22.9,2.5,-26.4,5.73,2.31,-28.2,28.3
2012-04-04 02:08:00,0.0,1.9097,0.0010,401.94,0.17,32.9,26.7,138.11,28.41,24.62,36.32,0.04,-272.74,-272.74,-51,557,-938,22.7,2.5,-26.8,23.0,2.6,-26.3,5.73,2.51,-28.2,28.4
2012-04-04 02:09:00,0.0,1.9100,0.0010,401.88,0.21,31.1,31.2,138.11,28.42,24.61,36.33,0.04,-272.73,-272.74,-51,557,-938,22.7,2.5,-26.6,23.0,2.6,-26.1,5.73,2.29,-28.2,28.4
2012-04-04 02:10:00,0.0,1.9098,0.0010,401.95,0.20,26.0,28.5,138.10,28.43,24.62,36.32,0.04,-272.74,-272.74,-51,557,-938,22.7,2.5,-26.5,23.0,2.6,-26.0,5.73,2.51,-28.2,28.4
2012-04-04 02:11:00,0.0,1.9103,0.0009,402.07,0.21,30.2,29.0,138.11,28.43,24.62,36.32,0.04,-272.74,-272.74,-51,557,-938,22.7,2.6,-26.4,23.0,2.6,-26.0,5.73,2.30,-28.2,28.3
2012-04-04 02:12:00,0.0,1.9114,0.0015,402.02,0.22,30.7,31.8,138.11,28.44,24.61,36.33,0.04,-272.73,-272.74,-51,557,-939,22.7,2.6,-26.3,23.0,2.6,-25.9,5.73,2.51,-28.3,27.7
2012-04-04 02:13:00,0.0,1.9121,0.0012,402.12,0.23,22.0,24.7,138.11,28.44,24.62,36.32,0.04,-272.74,-272.74,-51,557,-939,22.7,2.6,-26.3,22.9,2.6,-25.9,5.73,2.42,-28.5,27.1
2012-04-04 02:14:00,0.0,1.9124,0.0011,402.21,0.24,16.1,24.2,138.12,28.43,24.62,36.32,0.04,-272.74,-272.74,-51,557,-939,22.7,2.5,-26.5,22.9,2.6,-26.1,5.73,2.40,-28.7,26.7
2012-04-04 02:15:00,0.0,1.9113,0.0010,402.18,0.23,9.0,17.3,138.13,28.42,24.61,36.31,0.04,-272.74,-272.73,-51,557,-939,22.6,2.6,-26.4,22.8,2.6,-26.0,5.73,2.41,-28.9,26.4
2012-04-04 02:16:00,0.0,1.9106,0.0011,401.98,0.23,4.1,12.4,138.14,28.40,24.61,36.31,0.04,-272.74,-272.74,-51,557,-939,22.6,2.6,-26.3,22.7,2.7,-25.9,5.73,2.42,-29.2,26.1
2012-04-04 02:17:00,0.0,1.9099,0.0010,401.84,0.21,2.7,12.4,138.14,28.37,24.61,36.31,0.04,-272.74,-272.74,-52,556,-939,22.5,2.6,-26.2,22.6,2.7,-25.8,5.73,2.43,-29.4,25.8
2012-04-04 02:18:00,0.0,1.9097,0.0009,401.77,0.25,-0.4,3.7,138.15,28.34,24.61,36.31,0.04,-272.74,-272.74,-52,555,-939,22.4,2.7,-26.1,22.5,2.7,-25.7,5.73,2.41,-29.6,25.6